period_start,C,m1,H,J0,J1,J2,J3,J4,J5,JA,JB,JC,JD,JJ,JK,JN,#
2014-03-16 00:00:00,0.49,6.85,0.00,23.18,28.11,31.02,6.17,32.46,1010.82,2034.91,1613.06,1910.59,2081.31,350.42,322.28,15.02,0000 0000 0000 0000 000000
2014-03-16 00:01:00,0.59,6.85,0.00,23.17,28.11,31.02,6.08,32.33,1010.84,2034.93,1612.43,1910.20,2081.02,350.57,322.46,15.02,0000 0000 0000 0000 000000
2014-03-16 00:02:01,0.52,6.85,0.00,23.17,28.12,31.01,6.09,32.42,1010.83,2034.92,1612.14,1909.94,2080.48,350.50,322.40,15.03,0000 0000 0000 0000 000000
2014-03-16 00:03:01,0.41,6.86,0.00,23.17,28.12,31.03,6.01,32.21,1010.82,2034.89,1611.80,1909.45,2080.16,349.72,321.45,15.03,0000 0000 0000 0000 000000
2014-03-16 00:04:01,0.44,6.86,0.00,23.17,28.12,31.03,5.99,32.29,1010.79,2034.83,1611.28,1909.15,2079.81,349.71,321.60,15.04,0000 0000 0000 0000 000000
2014-03-16 00:05:02,0.42,6.86,0.00,23.17,28.12,31.04,5.98,32.29,1010.81,2034.81,1610.74,1908.86,2079.31,350.07,322.00,15.05,0000 0000 0000 0000 000000
2014-03-16 00:06:02,0.54,6.86,0.00,23.17,28.12,31.02,6.08,32.29,1010.81,2034.83,1610.27,1908.35,2079.10,350.37,322.27,15.05,0000 0000 0000 0000 000000
2014-03-16 00:07:02,0.48,6.87,0.00,23.19,28.12,31.00,5.95,32.29,1010.83,2034.85,1609.98,1908.12,2078.70,349.81,321.93,15.06,0000 0000 0000 0000 000000
2014-03-16 00:08:02,0.43,6.87,0.00,23.19,28.12,31.01,5.90,32.29,1010.81,2034.88,1609.44,1907.92,2078.27,349.63,321.87,15.06,0000 0000 0000 0000 000000
2014-03-16 00:09:02,0.46,6.87,0.00,23.20,28.12,31.02,5.95,31.96,1010.81,2034.74,1609.01,1907.43,2077.94,350.26,322.01,15.07,0000 0000 0000 0000 000000
2014-03-16 00:10:03,0.44,6.87,0.00,23.22,28.12,30.98,5.85,32.33,1010.79,2034.60,1608.41,1907.12,2077.38,350.05,322.22,15.07,0000 0000 0000 0000 000000
2014-03-16 00:11:03,0.35,6.88,0.00,23.22,28.12,31.00,5.94,32.46,1010.80,2034.61,1608.02,1906.68,2077.13,350.02,322.09,15.08,0000 0000 0000 0000 000000
2014-03-16 00:12:03,0.51,6.88,0.00,23.24,28.12,31.04,5.85,32.17,1010.85,2034.44,1607.43,1906.24,2076.67,349.09,321.03,15.09,0000 0000 0000 0000 000000
2014-03-16 00:13:03,0.40,6.88,0.00,23.24,28.12,31.02,6.01,32.04,1010.83,2034.50,1607.09,1906.01,2076.24,350.24,322.08,15.09,0000 0000 0000 0000 000000
2014-03-16 00:14:03,0.47,6.88,0.00,23.25,28.12,31.01,5.92,32.46,1010.82,2034.64,1606.54,1905.55,2076.00,350.18,322.02,15.10,0000 0000 0000 0000 000000
2014-03-16 00:15:04,0.70,6.89,0.00,23.25,28.12,31.06,6.11,32.29,1010.80,2034.61,1606.13,1905.20,2075.51,350.46,322.27,15.10,0000 0000 0000 0000 000000
2014-03-16 00:16:04,0.54,6.89,0.00,23.25,28.12,31.03,6.02,32.25,1010.80,2034.53,1605.54,1904.99,2075.18,350.21,322.04,15.11,0000 0000 0000 0000 000000
2014-03-16 00:17:04,0.31,6.89,0.00,23.23,28.13,30.96,6.13,32.33,1010.78,2034.49,1605.18,1904.48,2074.82,351.01,322.39,15.12,0000 0000 0000 0000 000000
2014-03-16 00:18:05,0.50,6.90,0.00,23.22,28.13,31.02,6.13,32.13,1010.81,2034.45,1604.72,1904.17,2074.32,350.45,322.29,15.12,0000 0000 0000 0000 000000
2014-03-16 00:19:05,0.48,6.90,0.00,23.22,28.14,31.03,5.93,32.21,1010.81,2034.45,1604.27,1903.93,2074.08,350.38,322.23,15.13,0000 0000 0000 0000 000000
2014-03-16 00:20:05,0.36,6.90,0.00,23.22,28.14,31.01,5.91,32.13,1010.80,2034.44,1603.93,1903.43,2073.58,350.11,322.16,15.13,0000 0000 0000 0000 000000
2014-03-16 00:21:05,0.53,6.90,0.00,23.23,28.14,30.98,6.02,32.21,1010.79,2034.28,1603.40,1903.15,2073.21,350.51,322.30,15.14,0000 0000 0000 0000 000000
2014-03-16 00:22:06,0.31,6.91,0.00,23.24,28.15,30.98,6.03,32.13,1010.79,2034.19,1603.02,1902.76,2072.88,350.39,322.20,15.14,0000 0000 0000 0000 000000
2014-03-16 00:23:06,0.38,6.91,0.00,23.24,28.15,30.99,5.98,32.29,1010.82,2034.10,1602.44,1902.30,2072.36,350.32,322.15,15.15,0000 0000 0000 0000 000000
2014-03-16 00:24:06,0.52,6.91,0.00,23.24,28.15,31.00,5.92,32.04,1010.81,2034.09,1602.09,1902.06,2072.09,349.84,321.70,15.16,0000 0000 0000 0000 000000
2014-03-16 00:25:07,0.33,6.91,0.00,23.25,28.15,31.03,6.06,32.33,1010.82,2034.08,1601.55,1901.62,2071.63,350.13,322.15,15.16,0000 0000 0000 0000 000000
2014-03-16 00:26:07,0.64,6.92,0.00,23.27,28.15,30.99,6.09,32.25,1010.80,2034.05,1601.16,1901.23,2071.23,350.62,322.34,15.17,0000 0000 0000 0000 000000
2014-03-16 00:27:07,0.37,6.92,0.00,23.27,28.15,31.04,5.95,32.17,1010.81,2034.10,1600.57,1901.07,2071.03,349.72,321.35,15.17,0000 0000 0000 0000 000000
2014-03-16 00:28:07,0.52,6.92,0.00,23.27,28.15,31.03,6.10,32.13,1010.77,2034.19,1600.19,1900.66,2070.49,350.31,322.36,15.18,0000 0000 0000 0000 000000
2014-03-16 00:29:08,0.65,6.93,0.00,23.27,28.15,30.99,6.11,32.33,1010.78,2034.24,1599.69,1900.24,2070.17,350.30,322.09,15.19,0000 0000 0000 0000 000000
2014-03-16 00:30:08,0.55,6.93,0.00,23.27,28.15,30.93,5.97,32.08,1010.76,2034.17,1599.25,1900.03,2069.80,349.78,321.59,15.19,0000 0000 0000 0000 000000
2014-03-16 00:31:08,0.31,6.93,0.00,23.27,28.15,30.98,6.03,32.38,1010.77,2034.13,1598.94,1899.50,2069.31,349.41,320.97,15.20,0000 0000 0000 0000 000000
2014-03-16 00:32:09,0.55,6.94,0.00,23.28,28.15,31.03,6.02,32.38,1010.78,2034.12,1598.39,1899.18,2069.04,350.97,322.88,15.20,0000 0000 0000 0000 000000
2014-03-16 00:33:09,0.41,6.94,0.00,23.29,28.16,31.03,6.09,32.33,1010.78,2034.09,1598.14,1898.97,2068.55,350.13,321.90,15.21,0000 0000 0000 0000 000000
2014-03-16 00:34:09,0.33,6.94,0.00,23.30,28.17,31.02,5.98,32.29,1010.77,2034.09,1597.71,1898.46,2068.20,350.35,322.54,15.21,0000 0000 0000 0000 000000
2014-03-16 00:35:09,0.59,6.94,0.00,23.30,28.17,30.94,5.95,32.00,1010.76,2034.07,1597.26,1898.15,2067.96,348.97,320.82,15.22,0000 0000 0000 0000 000000
2014-03-16 00:36:10,0.35,6.95,0.00,23.31,28.17,30.95,5.95,32.25,1010.77,2034.10,1596.91,1897.89,2067.43,350.13,321.88,15.23,0000 0000 0000 0000 000000
2014-03-16 00:37:10,0.45,6.95,0.00,23.32,28.17,30.94,6.23,32.33,1010.76,2034.09,1596.38,1897.38,2067.14,350.72,322.59,15.23,0000 0000 0000 0000 000000
2014-03-16 00:38:10,0.65,6.95,0.00,23.33,28.17,30.99,5.90,32.21,1010.77,2034.05,1596.12,1897.14,2066.84,349.58,321.42,15.24,0000 0000 0000 0000 000000
2014-03-16 00:39:10,0.23,6.95,0.00,23.34,28.17,31.01,6.00,32.21,1010.76,2034.04,1595.66,1896.95,2066.34,350.29,321.76,15.24,0000 0000 0000 0000 000000
2014-03-16 00:40:10,0.45,6.96,0.00,23.36,28.17,31.02,6.02,32.13,1010.76,2034.02,1595.25,1896.48,2066.09,349.97,321.68,15.25,0000 0000 0000 0000 000000
2014-03-16 00:41:11,0.47,6.96,0.00,23.37,28.17,31.01,6.04,32.42,1010.77,2034.00,1594.80,1896.18,2065.63,350.05,321.75,15.26,0000 0000 0000 0000 000000
2014-03-16 00:42:11,0.50,6.96,0.00,23.37,28.17,31.03,5.97,31.92,1010.76,2034.01,1594.31,1895.96,2065.23,350.11,321.74,15.26,0000 0000 0000 0000 000000
2014-03-16 00:43:11,0.40,6.96,0.00,23.37,28.17,31.01,6.08,32.38,1010.77,2034.00,1593.93,1895.45,2064.95,349.36,320.90,15.27,0000 0000 0000 0000 000000
2014-03-16 00:44:12,0.53,6.97,0.00,23.37,28.18,30.99,5.92,32.08,1010.78,2034.00,1593.37,1895.14,2064.41,349.76,321.48,15.27,0000 0000 0000 0000 000000
2014-03-16 00:45:12,0.57,6.97,0.00,23.37,28.18,30.99,6.05,32.13,1010.76,2034.00,1592.86,1894.69,2064.11,351.16,322.77,15.28,0000 0000 0000 0000 000000
2014-03-16 00:46:12,0.56,6.97,0.00,23.37,28.19,31.00,6.05,32.33,1010.76,2034.00,1592.33,1894.25,2063.59,350.57,322.46,15.29,0000 0000 0000 0000 000000
2014-03-16 00:47:12,0.60,6.98,0.00,23.37,28.20,31.03,6.07,32.21,1010.77,2034.00,1592.05,1894.07,2063.23,348.55,320.37,15.29,0000 0000 0000 0000 000000
2014-03-16 00:48:12,0.27,6.98,0.00,23.37,28.20,31.04,6.08,32.21,1010.76,2034.00,1591.51,1893.63,2063.00,350.57,321.82,15.30,0000 0000 0000 0000 000000
2014-03-16 00:49:12,0.57,6.98,0.00,23.37,28.20,31.03,5.95,32.04,1010.77,2034.01,1591.17,1893.23,2062.47,350.44,322.07,15.30,0000 0000 0000 0000 000000
2014-03-16 00:50:13,0.52,6.98,0.00,23.37,28.20,31.00,5.96,32.21,1010.77,2034.00,1590.76,1893.01,2062.17,350.01,321.70,15.31,0000 0000 0000 0000 000000
2014-03-16 00:51:13,0.37,6.99,0.00,23.37,28.20,31.03,5.77,32.21,1010.76,2034.00,1590.22,1892.55,2061.82,349.51,321.24,15.31,0000 0000 0000 0000 000000
2014-03-16 00:52:13,0.59,6.99,0.00,23.38,28.20,31.06,6.01,32.21,1010.76,2034.00,1589.59,1892.19,2061.31,350.02,321.71,15.32,0000 0000 0000 0000 000000
2014-03-16 00:53:13,0.62,6.99,0.00,23.39,28.20,31.07,5.95,32.08,1010.76,2034.00,1589.16,1891.87,2061.02,350.08,321.74,15.33,0000 0000 0000 0000 000000
2014-03-16 00:54:14,0.39,7.00,0.00,23.41,28.21,31.03,5.97,32.25,1010.77,2034.00,1588.58,1891.36,2060.49,350.03,321.69,15.33,0000 0000 0000 0000 000000
2014-03-16 00:55:14,0.73,7.00,0.00,23.42,28.22,31.00,6.01,32.17,1010.76,2034.00,1588.20,1891.11,2060.16,349.45,321.15,15.34,0000 0000 0000 0000 000000
2014-03-16 00:56:14,0.37,7.00,0.00,23.43,28.22,30.98,5.94,32.17,1010.76,2034.00,1587.70,1890.73,2059.76,350.89,322.46,15.34,0000 0000 0000 0000 000000
2014-03-16 00:57:15,0.54,7.01,0.00,23.44,28.22,31.02,6.12,32.42,1010.76,2034.00,1587.26,1890.30,2059.30,350.65,322.21,15.35,0000 0000 0000 0000 000000
2014-03-16 00:58:15,0.57,7.01,0.00,23.45,28.22,31.05,5.95,32.21,1010.76,2034.00,1586.86,1890.08,2059.07,349.39,321.05,15.36,0000 0000 0000 0000 000000
2014-03-16 00:59:15,0.32,7.01,0.00,23.45,28.22,31.00,5.91,32.29,1010.76,2034.00,1586.35,1889.64,2058.65,349.22,320.90,15.36,0000 0000 0000 0000 000000
2014-03-16 01:00:15,0.62,7.02,0.00,23.47,28.22,30.99,6.09,32.17,1010.76,2034.00,1585.99,1889.24,2058.24,350.05,321.64,15.37,0000 0000 0000 0000 000000
2014-03-16 01:01:16,0.45,7.02,0.00,23.47,28.22,31.00,5.97,32.33,1010.76,2034.00,1585.43,1889.08,2058.01,349.96,321.82,15.37,0000 0000 0000 0000 000000
2014-03-16 01:02:16,0.42,7.02,0.00,23.47,28.23,30.98,5.99,32.21,1010.76,2034.00,1585.14,1888.74,2057.54,350.24,321.80,15.38,0000 0000 0000 0000 000000
2014-03-16 01:03:16,0.45,7.02,0.00,23.47,28.24,30.97,6.02,32.25,1010.76,2034.00,1584.76,1888.28,2057.20,349.20,320.86,15.38,0000 0000 0000 0000 000000
2014-03-16 01:04:17,0.48,7.03,0.00,23.47,28.25,30.95,6.00,32.17,1010.76,2034.00,1584.29,1888.10,2056.93,349.64,321.31,15.39,0000 0000 0000 0000 000000
2014-03-16 01:05:17,0.39,7.03,0.00,23.47,28.25,30.98,5.80,32.13,1010.76,2034.00,1584.03,1887.79,2056.42,349.62,321.49,15.40,0000 0000 0000 0000 000000
2014-03-16 01:06:17,0.46,7.03,0.00,23.49,28.25,31.00,6.04,32.29,1010.76,2034.00,1583.49,1887.31,2056.15,350.14,321.70,15.40,0000 0000 0000 0000 000000
2014-03-16 01:07:17,0.54,7.03,0.00,23.50,28.25,31.00,5.97,32.17,1010.76,2033.99,1583.17,1887.07,2055.76,349.92,321.40,15.41,0000 0000 0000 0000 000000
2014-03-16 01:08:18,0.38,7.04,0.00,23.51,28.25,30.97,6.06,32.25,1010.76,2033.98,1582.80,1886.60,2055.30,349.87,321.02,15.41,0000 0000 0000 0000 000000
2014-03-16 01:09:18,0.53,7.04,0.00,23.52,28.25,30.94,5.94,32.00,1010.76,2033.98,1582.30,1886.22,2055.04,349.89,321.91,15.42,0000 0000 0000 0000 000000
2014-03-16 01:10:18,0.48,7.04,0.00,23.52,28.26,30.98,5.99,32.21,1010.76,2033.97,1581.89,1885.98,2054.51,349.49,321.06,15.43,0000 0000 0000 0000 000000
2014-03-16 01:11:19,0.45,7.04,0.00,23.52,28.27,30.99,6.10,32.33,1010.76,2033.98,1581.34,1885.47,2054.18,350.65,322.13,15.43,0000 0000 0000 0000 000000
2014-03-16 01:12:19,0.63,7.05,0.00,23.52,28.27,31.00,6.14,32.25,1010.76,2033.98,1580.98,1885.17,2053.86,350.68,322.15,15.44,0000 0000 0000 0000 000000
2014-03-16 01:13:19,0.39,7.05,0.00,23.52,28.27,30.97,5.96,32.25,1010.76,2033.99,1580.43,1884.98,2053.36,349.85,321.20,15.44,0000 0000 0000 0000 000000
2014-03-16 01:14:19,0.52,7.05,0.00,23.52,28.27,30.97,5.98,32.21,1010.76,2033.99,1580.10,1884.49,2053.09,349.72,321.28,15.45,0000 0000 0000 0000 000000
2014-03-16 01:15:19,0.48,7.06,0.00,23.52,28.27,30.98,5.98,32.29,1010.75,2033.98,1579.58,1884.18,2052.65,350.11,321.63,15.45,0000 0000 0000 0000 000000
2014-03-16 01:16:20,0.49,7.06,0.00,23.52,28.28,30.98,5.96,32.17,1010.76,2033.96,1579.20,1883.98,2052.25,349.12,320.72,15.46,0000 0000 0000 0000 000000
2014-03-16 01:17:20,0.39,7.06,0.00,23.52,28.29,31.00,5.92,32.13,1010.76,2033.94,1578.75,1883.44,2051.96,350.03,321.77,15.47,0000 0000 0000 0000 000000
2014-03-16 01:18:20,0.53,7.06,0.00,23.52,28.30,31.01,6.07,32.08,1010.76,2033.92,1578.27,1883.15,2051.42,350.80,322.34,15.47,0000 0000 0000 0000 000000
2014-03-16 01:19:21,0.53,7.07,0.00,23.53,28.30,31.05,6.12,32.25,1010.75,2033.95,1577.77,1882.83,2051.15,350.86,322.40,15.48,0000 0000 0000 0000 000000
2014-03-16 01:20:21,0.49,7.07,0.00,23.54,28.30,31.05,5.98,32.21,1010.75,2033.96,1577.27,1882.34,2050.78,350.16,321.42,15.48,0000 0000 0000 0000 000000
2014-03-16 01:21:21,0.61,7.07,0.00,23.55,28.30,31.04,6.09,32.42,1010.76,2033.91,1576.86,1882.12,2050.29,350.26,321.59,15.49,0000 0000 0000 0000 000000
2014-03-16 01:22:22,0.39,7.08,0.00,23.57,28.30,31.05,5.92,32.17,1010.73,2033.94,1576.35,1881.78,2050.05,349.61,320.85,15.50,0000 0000 0000 0000 000000
2014-03-16 01:23:22,0.50,7.08,0.00,23.58,28.31,31.07,5.85,32.08,1010.74,2033.93,1575.98,1881.31,2049.55,349.79,321.28,15.50,0000 0000 0000 0000 000000
2014-03-16 01:24:22,0.52,7.08,0.00,23.59,28.32,31.05,6.02,32.21,1010.74,2033.89,1575.41,1881.10,2049.20,350.44,321.77,15.51,0000 0000 0000 0000 000000
2014-03-16 01:25:22,0.48,7.09,0.00,23.60,28.32,31.05,5.89,32.17,1010.72,2033.93,1574.98,1880.67,2048.88,350.21,321.04,15.51,0000 0000 0000 0000 000000
2014-03-16 01:26:23,0.50,7.09,0.00,23.62,28.32,31.06,5.82,32.33,1010.75,2033.91,1574.39,1880.24,2048.36,349.34,320.82,15.52,0000 0000 0000 0000 000000
2014-03-16 01:27:23,0.66,7.09,0.00,23.62,28.32,31.02,5.93,32.21,1010.76,2033.84,1574.14,1880.06,2048.10,349.56,321.04,15.53,0000 0000 0000 0000 000000
2014-03-16 01:28:23,0.23,7.09,0.00,23.62,28.33,31.03,5.94,32.00,1010.75,2033.84,1573.84,1879.67,2047.61,349.67,321.11,15.53,0000 0000 0000 0000 000000
2014-03-16 01:29:23,0.44,7.10,0.00,23.64,28.34,31.06,6.04,32.08,1010.74,2033.81,1573.34,1879.26,2047.23,349.48,320.92,15.54,0000 0000 0000 0000 000000
2014-03-16 01:30:24,0.54,7.10,0.00,23.64,28.35,31.04,5.99,32.29,1010.76,2033.75,1572.90,1879.00,2047.06,350.05,321.44,15.54,0000 0000 0000 0000 000000
2014-03-16 01:31:24,0.25,7.10,0.00,23.63,28.35,31.05,5.97,32.25,1010.75,2033.50,1572.34,1878.45,2046.71,349.70,321.13,15.55,0000 0000 0000 0000 000000
2014-03-16 01:32:24,0.40,7.10,0.00,23.63,28.35,31.04,5.88,32.33,1010.75,2033.37,1572.04,1878.15,2046.26,350.15,321.55,15.55,0000 0000 0000 0000 000000
2014-03-16 01:33:25,0.30,7.11,0.00,23.63,28.35,31.00,6.10,32.29,1010.76,2033.40,1571.49,1878.01,2046.09,350.55,321.91,15.56,0000 0000 0000 0000 000000
2014-03-16 01:34:25,0.41,7.11,0.00,23.64,28.35,31.00,6.14,32.25,1010.75,2033.36,1571.18,1877.56,2045.78,351.45,322.33,15.57,0000 0000 0000 0000 000000
2014-03-16 01:35:25,0.38,7.11,0.00,23.64,28.37,31.06,5.86,32.00,1010.76,2033.20,1570.74,1877.20,2045.31,350.47,321.83,15.57,0000 0000 0000 0000 000000
2014-03-16 01:36:26,0.37,7.11,0.00,23.64,28.37,31.05,5.99,32.25,1010.76,2033.13,1570.31,1877.04,2045.09,349.84,320.98,15.58,0000 0000 0000 0000 000000
2014-03-16 01:37:26,0.30,7.11,0.00,23.65,28.37,31.06,5.97,32.13,1010.76,2033.11,1569.97,1876.55,2044.59,349.91,321.31,15.58,0000 0000 0000 0000 000000
2014-03-16 01:38:26,0.51,7.12,0.00,23.67,28.37,31.03,5.99,32.29,1010.75,2033.09,1569.42,1876.20,2044.21,350.95,321.86,15.59,0000 0000 0000 0000 000000
2014-03-16 01:39:26,0.48,7.12,0.00,23.67,28.38,31.01,5.99,32.13,1010.76,2033.06,1569.10,1875.98,2043.95,349.95,321.32,15.60,0000 0000 0000 0000 000000
2014-03-16 01:40:27,0.37,7.12,0.00,23.69,28.38,31.00,5.96,32.33,1010.76,2033.03,1568.56,1875.45,2043.41,349.77,321.43,15.60,0000 0000 0000 0000 000000
2014-03-16 01:41:27,0.59,7.13,0.00,23.69,28.40,31.01,5.99,32.42,1010.76,2033.06,1568.13,1875.14,2043.13,350.08,321.38,15.61,0000 0000 0000 0000 000000
2014-03-16 01:42:27,0.53,7.13,0.00,23.70,28.40,31.00,5.77,32.17,1010.76,2033.06,1567.53,1874.75,2042.59,350.23,321.86,15.61,0000 0000 0000 0000 000000
2014-03-16 01:43:27,0.60,7.13,0.00,23.70,28.40,31.02,5.97,32.13,1010.76,2033.08,1567.18,1874.30,2042.21,350.17,321.20,15.62,0000 0000 0000 0000 000000
2014-03-16 01:44:28,0.51,7.14,0.00,23.70,28.40,31.05,5.88,32.29,1010.75,2033.04,1566.79,1874.10,2042.00,349.64,321.19,15.62,0000 0000 0000 0000 000000
2014-03-16 01:45:28,0.32,7.14,0.00,23.70,28.40,31.11,5.91,32.17,1010.76,2033.03,1566.30,1873.86,2041.54,349.93,321.91,15.63,0000 0000 0000 0000 000000
2014-03-16 01:46:29,0.48,7.14,0.00,23.70,28.41,31.10,5.97,32.46,1010.76,2033.02,1565.81,1873.37,2041.18,350.13,321.47,15.64,0000 0000 0000 0000 000000
2014-03-16 01:47:29,0.55,7.14,0.00,23.70,28.42,31.08,6.20,32.46,1010.75,2033.01,1565.26,1873.06,2040.79,350.88,322.15,15.64,0000 0000 0000 0000 000000
2014-03-16 01:48:29,0.58,7.15,0.00,23.70,28.42,31.11,5.99,32.29,1010.76,2033.01,1564.66,1872.54,2040.30,349.82,321.17,15.65,0000 0000 0000 0000 000000
2014-03-16 01:49:29,0.63,7.15,0.00,23.70,28.42,31.11,5.96,32.29,1010.75,2033.02,1564.23,1872.19,2040.07,350.54,321.52,15.65,0000 0000 0000 0000 000000
2014-03-16 01:50:30,0.51,7.15,0.00,23.71,28.42,31.13,5.93,32.21,1010.75,2033.02,1563.64,1871.96,2039.56,349.62,320.98,15.66,0000 0000 0000 0000 000000
2014-03-16 01:51:30,0.53,7.16,0.00,23.72,28.42,31.16,6.04,32.13,1010.75,2033.02,1563.20,1871.45,2039.19,350.46,321.75,15.67,0000 0000 0000 0000 000000
2014-03-16 01:52:30,0.58,7.16,0.00,23.74,28.43,31.19,5.90,32.38,1010.73,2033.04,1562.69,1871.16,2038.84,349.94,320.73,15.67,0000 0000 0000 0000 000000
2014-03-16 01:53:30,0.48,7.16,0.00,23.75,28.44,31.12,5.78,32.17,1010.73,2033.02,1562.24,1870.89,2038.34,349.33,320.71,15.68,0000 0000 0000 0000 000000
2014-03-16 01:54:30,0.50,7.17,0.00,23.77,28.45,31.11,5.88,32.17,1010.76,2033.00,1561.74,1870.37,2038.08,349.86,321.29,15.68,0000 0000 0000 0000 000000
2014-03-16 01:55:31,0.54,7.17,0.00,23.77,28.45,31.11,5.97,32.17,1010.74,2033.01,1561.27,1870.12,2037.63,350.20,321.44,15.69,0000 0000 0000 0000 000000
2014-03-16 01:56:31,0.51,7.17,0.00,23.77,28.45,31.10,6.02,32.29,1010.74,2033.00,1560.80,1869.71,2037.23,350.17,321.05,15.70,0000 0000 0000 0000 000000
2014-03-16 01:57:31,0.50,7.17,0.00,23.77,28.45,31.10,5.93,32.46,1010.75,2033.00,1560.30,1869.27,2036.85,349.79,321.07,15.70,0000 0000 0000 0000 000000
2014-03-16 01:58:32,0.58,7.18,0.00,23.77,28.46,31.11,5.92,32.21,1010.69,2033.00,1559.93,1869.10,2036.33,350.31,321.46,15.71,0000 0000 0000 0000 000000
2014-03-16 01:59:32,0.44,7.18,0.00,23.79,28.47,31.11,5.90,32.17,1010.68,2033.00,1559.39,1868.75,2036.12,350.26,321.23,15.71,0000 0000 0000 0000 000000
2014-03-16 02:00:32,0.48,7.18,0.00,23.80,28.47,31.11,5.89,32.08,1010.67,2033.00,1559.06,1868.28,2035.64,350.65,321.40,15.72,0000 0000 0000 0000 000000
2014-03-16 02:01:33,0.53,7.19,0.00,23.80,28.47,31.14,5.91,32.29,1010.68,2033.00,1558.53,1868.09,2035.25,349.31,320.58,15.72,0000 0000 0000 0000 000000
2014-03-16 02:02:33,0.47,7.19,0.00,23.80,28.47,31.10,5.99,32.33,1010.69,2033.00,1558.17,1867.68,2035.02,349.83,321.00,15.73,0000 0000 0000 0000 000000
2014-03-16 02:03:33,0.48,7.19,0.00,23.80,28.47,31.13,6.04,32.29,1010.62,2033.00,1557.66,1867.25,2034.47,349.99,321.09,15.74,0000 0000 0000 0000 000000
2014-03-16 02:04:33,0.57,7.20,0.00,23.80,28.48,31.15,5.92,32.13,1010.63,2033.00,1557.24,1867.02,2034.17,350.19,321.37,15.74,0000 0000 0000 0000 000000
2014-03-16 02:05:34,0.45,7.20,0.00,23.80,28.49,31.15,6.12,32.33,1010.64,2033.00,1556.85,1866.53,2033.84,350.22,321.40,15.75,0000 0000 0000 0000 000000
2014-03-16 02:06:34,0.49,7.20,0.00,23.81,28.50,31.11,5.96,32.29,1010.66,2033.00,1556.33,1866.19,2033.33,349.07,320.56,15.75,0000 0000 0000 0000 000000
2014-03-16 02:07:34,0.57,7.20,0.00,23.82,28.50,31.12,5.96,32.38,1010.63,2033.00,1556.00,1866.00,2033.08,349.74,320.93,15.76,0000 0000 0000 0000 000000
2014-03-16 02:08:34,0.42,7.21,0.00,23.82,28.50,31.18,5.98,32.38,1010.65,2033.00,1555.43,1865.47,2032.57,349.93,321.11,15.77,0000 0000 0000 0000 000000
2014-03-16 02:09:35,0.59,7.21,0.00,23.82,28.50,31.16,5.93,32.29,1010.65,2033.00,1555.13,1865.17,2032.22,350.53,321.66,15.77,0000 0000 0000 0000 000000
2014-03-16 02:10:35,0.46,7.21,0.00,23.82,28.51,31.16,5.92,32.33,1010.62,2033.00,1554.55,1864.90,2032.02,349.80,321.41,15.78,0000 0000 0000 0000 000000
2014-03-16 02:11:36,0.44,7.22,0.00,23.82,28.52,31.14,5.82,32.21,1010.62,2033.00,1554.19,1864.47,2031.58,349.07,320.32,15.78,0000 0000 0000 0000 000000
2014-03-16 02:12:36,0.50,7.22,0.00,23.82,28.52,31.14,5.94,32.33,1010.66,2033.00,1553.76,1864.18,2031.20,349.53,320.64,15.79,0000 0000 0000 0000 000000
2014-03-16 02:13:36,0.47,7.22,0.00,23.82,28.52,31.18,6.12,32.29,1010.67,2033.00,1553.27,1863.86,2030.80,350.87,322.08,15.79,0000 0000 0000 0000 000000
2014-03-16 02:14:36,0.55,7.23,0.00,23.82,28.52,31.20,5.89,32.29,1010.64,2033.00,1552.80,1863.35,2030.30,349.98,321.46,15.80,0000 0000 0000 0000 000000
2014-03-16 02:15:37,0.58,7.23,0.00,23.82,28.52,31.18,5.93,32.25,1010.62,2032.99,1552.30,1863.10,2030.01,349.84,320.65,15.81,0000 0000 0000 0000 000000
2014-03-16 02:16:37,0.50,7.23,0.00,23.82,28.53,31.18,5.90,32.33,1010.62,2032.98,1551.81,1862.67,2029.47,349.85,320.83,15.81,0000 0000 0000 0000 000000
2014-03-16 02:17:37,0.56,7.24,0.00,23.84,28.54,31.17,5.83,32.33,1010.65,2032.96,1551.34,1862.25,2029.17,350.10,321.24,15.82,0000 0000 0000 0000 000000
2014-03-16 02:18:38,0.49,7.24,0.00,23.85,28.55,31.18,6.06,32.29,1010.67,2032.96,1550.96,1862.06,2028.81,350.79,321.87,15.82,0000 0000 0000 0000 000000
2014-03-16 02:19:38,0.49,7.24,0.00,23.87,28.55,31.22,6.07,32.21,1010.64,2032.97,1550.39,1861.58,2028.32,350.38,321.43,15.83,0000 0000 0000 0000 000000
2014-03-16 02:20:38,0.60,7.25,0.00,23.87,28.55,31.25,6.08,32.54,1010.67,2032.98,1550.02,1861.20,2028.09,350.20,321.31,15.84,0000 0000 0000 0000 000000
2014-03-16 02:21:39,0.46,7.25,0.00,23.89,28.55,31.26,6.03,32.58,1010.69,2032.98,1549.48,1861.06,2027.68,350.17,321.48,15.84,0000 0000 0000 0000 000000
2014-03-16 02:22:39,0.43,7.25,0.00,23.90,28.56,31.24,5.88,32.17,1010.69,2032.97,1549.17,1860.70,2027.25,350.13,321.22,15.85,0000 0000 0000 0000 000000
2014-03-16 02:23:39,0.47,7.25,0.00,23.90,28.57,31.22,5.91,32.08,1010.67,2032.97,1548.74,1860.26,2026.99,349.45,320.91,15.85,0000 0000 0000 0000 000000
2014-03-16 02:24:40,0.52,7.25,0.00,23.90,28.57,31.19,5.94,32.25,1010.72,2032.98,1548.27,1860.02,2026.47,350.55,321.62,15.86,0000 0000 0000 0000 000000
2014-03-16 02:25:40,0.50,7.26,0.00,23.90,28.57,31.22,5.96,32.04,1010.74,2032.99,1547.92,1859.54,2026.17,350.11,321.22,15.87,0000 0000 0000 0000 000000
2014-03-16 02:26:40,0.51,7.26,0.00,23.90,28.57,31.21,6.13,32.54,1010.73,2032.96,1547.38,1859.20,2025.79,350.53,321.60,15.87,0000 0000 0000 0000 000000
2014-03-16 02:27:41,0.49,7.27,0.00,23.90,28.58,31.22,5.87,32.13,1010.74,2032.93,1547.03,1858.94,2025.31,349.88,321.01,15.88,0000 0000 0000 0000 000000
2014-03-16 02:28:41,0.48,7.27,0.00,23.90,28.59,31.24,6.02,32.29,1010.71,2032.93,1546.49,1858.45,2025.09,349.76,320.82,15.88,0000 0000 0000 0000 000000
2014-03-16 02:29:41,0.52,7.27,0.00,23.90,28.60,31.26,5.92,32.29,1010.67,2032.88,1546.15,1858.16,2024.59,350.27,321.24,15.89,0000 0000 0000 0000 000000
2014-03-16 02:30:42,0.44,7.27,1.00,23.90,28.60,31.25,5.95,32.29,1010.60,2032.79,1545.58,1857.85,2024.21,350.14,321.20,15.89,0000 0000 0000 0000 000000
2014-03-16 02:31:42,0.39,7.27,1.00,23.90,28.60,31.27,5.86,32.29,1010.58,2032.68,1545.20,1857.35,2023.94,349.82,320.90,15.90,0000 0000 0000 0000 000000
2014-03-16 02:32:42,0.41,7.28,1.00,23.90,28.60,31.27,5.97,32.33,1010.51,2032.67,1544.74,1857.12,2023.41,350.45,321.08,15.91,0000 0000 0000 0000 000000
2014-03-16 02:33:43,0.51,7.28,1.00,23.90,28.61,31.27,5.90,32.08,1010.45,2032.66,1544.29,1856.88,2023.13,349.46,320.21,15.91,0000 0000 0000 0000 000000
2014-03-16 02:34:43,0.39,7.28,1.00,23.91,28.62,31.29,5.93,32.17,1010.54,2032.47,1543.95,1856.36,2022.73,350.06,320.86,15.92,0000 0000 0000 0000 000000
2014-03-16 02:35:43,0.38,7.29,1.00,23.92,28.62,31.28,6.12,32.21,1010.58,2032.38,1543.40,1856.12,2022.27,349.29,320.51,15.92,0000 0000 0000 0000 000000